When you browse on this site, cookies collect data to enhance your experience and personalize the content and advertising you see.
Visit our Privacy Policy to learn more. By continuing to use the site, you agree to this use of cookies and data.
  • In Switzerland
  • List of Countries
  • For 7 days
  • Water Temperature
  • Satellite Maps
  • Weather Map
  • Weather Widgets
  • user-avatar
    Login

    Hourly Weather Lehrte

    Today, 27 May, Monday

    Time Temperature Precipitation Wind Pressure Humidity
    00:00 +14°C° 0 mm 4 mps 750 mmHg 82%
    01:00 +14°C° 0 mm 5 mps 750 mmHg 83%
    02:00 +14°C° 0.1 mm 5 mps 750 mmHg 85%
    03:00 +14°C° 0.1 mm 5 mps 750 mmHg 88%
    04:00 +14°C° 0.1 mm 5 mps 750 mmHg 90%
    05:00 +14°C° 0.3 mm 4 mps 750 mmHg 92%
    06:00 +14°C° 0.3 mm 4 mps 750 mmHg 93%
    07:00 +14°C° 0.3 mm 3 mps 750 mmHg 94%
    08:00 +14°C° 0.1 mm 3 mps 750 mmHg 89%
    09:00 +16°C° 0.1 mm 3 mps 750 mmHg 83%
    10:00 +17°C° 0.1 mm 3 mps 751 mmHg 78%
    11:00 +18°C° 0.1 mm 4 mps 750 mmHg 73%
    12:00 +19°C° 0.1 mm 4 mps 750 mmHg 68%
    13:00 +20°C° 0.1 mm 4 mps 750 mmHg 63%
    14:00 +20°C° 0.1 mm 4 mps 750 mmHg 63%
    15:00 +20°C° 0.1 mm 4 mps 750 mmHg 63%
    16:00 +20°C° 0.1 mm 4 mps 750 mmHg 63%
    17:00 +19°C° 0.1 mm 4 mps 750 mmHg 66%
    18:00 +18°C° 0.1 mm 3 mps 750 mmHg 70%
    19:00 +17°C° 0.1 mm 3 mps 750 mmHg 74%
    20:00 +16°C° 0 mm 2 mps 750 mmHg 75%
    21:00 +15°C° 0 mm 2 mps 750 mmHg 75%
    22:00 +14°C° 0 mm 2 mps 750 mmHg 76%
    23:00 +13°C° 0 mm 1 mps 750 mmHg 78%

    Tomorrow, 28 May, Tuesday

    Time Temperature Precipitation Wind Pressure Humidity
    00:00 +13°C° 0 mm 1 mps 750 mmHg 80%
    01:00 +12°C° 0 mm 1 mps 750 mmHg 81%
    02:00 +11°C° 0 mm 1 mps 750 mmHg 84%
    03:00 +10°C° 0 mm 1 mps 749 mmHg 87%
    04:00 +10°C° 0 mm 1 mps 749 mmHg 90%
    05:00 +11°C° 0 mm 1 mps 749 mmHg 86%
    06:00 +11°C° 0 mm 0 mps 749 mmHg 82%
    07:00 +12°C° 0 mm 0 mps 749 mmHg 78%
    08:00 +13°C° 0.1 mm 1 mps 750 mmHg 78%
    09:00 +14°C° 0.1 mm 2 mps 750 mmHg 78%
    10:00 +13°C° 0.1 mm 3 mps 750 mmHg 77%
    11:00 +13°C° 0.4 mm 3 mps 750 mmHg 79%
    12:00 +13°C° 0.4 mm 3 mps 750 mmHg 80%
    13:00 +13°C° 0.4 mm 3 mps 750 mmHg 82%
    14:00 +14°C° 0.1 mm 3 mps 750 mmHg 76%
    15:00 +16°C° 0.1 mm 3 mps 751 mmHg 70%
    16:00 +15°C° 0.1 mm 4 mps 751 mmHg 64%
    17:00 +15°C° 0.1 mm 4 mps 752 mmHg 66%
    18:00 +14°C° 0.1 mm 3 mps 752 mmHg 68%
    19:00 +13°C° 0.1 mm 3 mps 753 mmHg 70%
    20:00 +12°C° 0 mm 3 mps 753 mmHg 69%
    21:00 +11°C° 0 mm 3 mps 754 mmHg 69%
    22:00 +10°C° 0 mm 3 mps 755 mmHg 68%
    23:00 +9°C° 0 mm 3 mps 755 mmHg 71%

    Day after tomorrow, 29 May, Wednesday

    Time Temperature Precipitation Wind Pressure Humidity
    00:00 +8°C° 0 mm 3 mps 756 mmHg 74%
    01:00 +7°C° 0 mm 2 mps 756 mmHg 77%
    02:00 +6°C° 0 mm 2 mps 756 mmHg 80%
    03:00 +5°C° 0 mm 2 mps 757 mmHg 83%
    04:00 +5°C° 0 mm 1 mps 757 mmHg 86%
    05:00 +7°C° 0 mm 1 mps 758 mmHg 81%
    06:00 +8°C° 0 mm 1 mps 758 mmHg 75%
    07:00 +10°C° 0 mm 1 mps 758 mmHg 70%
    08:00 +11°C° 0 mm 1 mps 759 mmHg 65%
    09:00 +13°C° 0 mm 1 mps 759 mmHg 60%
    10:00 +14°C° 0 mm 1 mps 759 mmHg 55%
    11:00 +15°C° 0 mm 1 mps 759 mmHg 52%
    12:00 +16°C° 0 mm 1 mps 759 mmHg 50%
    13:00 +17°C° 0 mm 2 mps 759 mmHg 47%
    14:00 +17°C° 0 mm 2 mps 758 mmHg 48%
    15:00 +18°C° 0 mm 2 mps 758 mmHg 48%
    16:00 +18°C° 0 mm 2 mps 757 mmHg 49%
    17:00 +17°C° 0 mm 2 mps 757 mmHg 55%
    18:00 +17°C° 0 mm 2 mps 757 mmHg 62%
    19:00 +16°C° 0 mm 3 mps 757 mmHg 68%
    20:00 +14°C° 0 mm 3 mps 757 mmHg 70%
    21:00 +13°C° 0 mm 4 mps 757 mmHg 71%
    22:00 +13°C° 0 mm 4 mps 757 mmHg 73%
    23:00 +13°C° 0 mm 4 mps 757 mmHg 72%

    30 May, Thursday

    Time Temperature Precipitation Wind Pressure Humidity
    00:00 +13°C° 0 mm 5 mps 756 mmHg 70%
    01:00 +13°C° 0 mm 5 mps 756 mmHg 69%
    02:00 +13°C° 0 mm 5 mps 756 mmHg 73%
    03:00 +12°C° 0 mm 5 mps 755 mmHg 76%
    04:00 +12°C° 0 mm 4 mps 755 mmHg 80%
    05:00 +12°C° 0 mm 5 mps 755 mmHg 81%
    06:00 +13°C° 0 mm 5 mps 755 mmHg 82%
    07:00 +14°C° 0 mm 5 mps 755 mmHg 84%
    08:00 +15°C° 0.1 mm 5 mps 756 mmHg 83%
    09:00 +15°C° 0.1 mm 5 mps 756 mmHg 83%
    10:00 +16°C° 0.1 mm 5 mps 756 mmHg 82%
    11:00 +17°C° 0.1 mm 5 mps 756 mmHg 77%
    12:00 +17°C° 0.1 mm 5 mps 757 mmHg 71%
    13:00 +19°C° 0.1 mm 6 mps 757 mmHg 66%
    14:00 +19°C° 0 mm 5 mps 757 mmHg 65%
    15:00 +20°C° 0 mm 5 mps 757 mmHg 64%
    16:00 +20°C° 0 mm 4 mps 757 mmHg 63%
    17:00 +20°C° 0 mm 3 mps 757 mmHg 66%
    18:00 +19°C° 0 mm 2 mps 757 mmHg 70%
    19:00 +20°C° 0 mm 1 mps 757 mmHg 73%
    20:00 +18°C° 0.2 mm 2 mps 757 mmHg 80%
    21:00 +17°C° 0.2 mm 3 mps 757 mmHg 86%
    22:00 +15°C° 0.2 mm 4 mps 757 mmHg 92%
    23:00 +15°C° 1.3 mm 4 mps 757 mmHg 93%

    31 May, Friday

    Time Temperature Precipitation Wind Pressure Humidity
    00:00 +15°C° 1.3 mm 5 mps 756 mmHg 94%
    01:00 +15°C° 1.3 mm 5 mps 756 mmHg 95%
    02:00 +15°C° 1.7 mm 5 mps 756 mmHg 95%
    03:00 +15°C° 1.7 mm 5 mps 756 mmHg 95%
    04:00 +15°C° 1.7 mm 5 mps 755 mmHg 95%
    05:00 +14°C° 0.3 mm 5 mps 756 mmHg 94%
    06:00 +14°C° 0.3 mm 5 mps 756 mmHg 94%
    07:00 +14°C° 0.3 mm 5 mps 756 mmHg 94%
    08:00 +14°C° 0.1 mm 5 mps 757 mmHg 92%
    09:00 +13°C° 0.1 mm 5 mps 757 mmHg 91%
    10:00 +13°C° 0.1 mm 5 mps 758 mmHg 89%
    11:00 +12°C° 0 mm 5 mps 759 mmHg 88%
    12:00 +12°C° 0 mm 5 mps 759 mmHg 86%
    13:00 +12°C° 0 mm 5 mps 760 mmHg 85%
    14:00 +12°C° 0.1 mm 5 mps 761 mmHg 82%
    15:00 +12°C° 0.1 mm 4 mps 762 mmHg 79%
    16:00 +13°C° 0.1 mm 4 mps 762 mmHg 76%
    17:00 +13°C° 0 mm 4 mps 763 mmHg 75%
    18:00 +13°C° 0 mm 3 mps 763 mmHg 73%
    19:00 +13°C° 0 mm 3 mps 764 mmHg 71%
    20:00 +11°C° 0 mm 3 mps 764 mmHg 74%
    21:00 +9°C° 0 mm 3 mps 765 mmHg 77%
    22:00 +8°C° 0 mm 3 mps 765 mmHg 79%
    23:00 +7°C° 0 mm 3 mps 765 mmHg 83%

    1 June, Saturday

    Time Temperature Precipitation Wind Pressure Humidity
    00:00 +6°C° 0 mm 2 mps 766 mmHg 87%
    01:00 +6°C° 0 mm 2 mps 766 mmHg 91%
    02:00 +5°C° 0 mm 2 mps 766 mmHg 92%
    03:00 +5°C° 0 mm 2 mps 766 mmHg 93%
    04:00 +4°C° 0 mm 2 mps 766 mmHg 94%
    05:00 +7°C° 0 mm 1 mps 766 mmHg 89%
    06:00 +8°C° 0 mm 1 mps 766 mmHg 84%
    07:00 +10°C° 0 mm 1 mps 767 mmHg 80%
    08:00 +11°C° 0 mm 1 mps 767 mmHg 73%
    09:00 +13°C° 0 mm 1 mps 767 mmHg 66%
    10:00 +15°C° 0 mm 1 mps 767 mmHg 59%
    11:00 +16°C° 0 mm 1 mps 766 mmHg 56%
    12:00 +18°C° 0 mm 1 mps 766 mmHg 53%
    13:00 +19°C° 0 mm 1 mps 766 mmHg 49%
    14:00 +19°C° 0 mm 1 mps 766 mmHg 48%
    15:00 +20°C° 0 mm 1 mps 765 mmHg 47%
    16:00 +20°C° 0 mm 1 mps 765 mmHg 46%
    17:00 +19°C° 0 mm 1 mps 765 mmHg 52%
    18:00 +18°C° 0 mm 1 mps 765 mmHg 58%
    19:00 +18°C° 0 mm 1 mps 765 mmHg 63%
    20:00 +15°C° 0 mm 1 mps 765 mmHg 65%
    21:00 +14°C° 0 mm 1 mps 765 mmHg 66%
    22:00 +12°C° 0 mm 1 mps 766 mmHg 67%
    23:00 +12°C° 0 mm 1 mps 765 mmHg 69%
    Show more